Location: Casco Millpond
(44.5581°N, 87.6111°W)
Time: 20:29:18
(UTC+00:00)

SL-16 R/B - Pass Details

Date: 16 January 2026
Orbit: 842 x 846 km, 71.0° (Epoch: 10 February)

Event Time Altitude Azimuth Distance (km) Brightness Sun altitude
Rises 23:37:25 0° 250° (WSW) 3,395 7.7 -10.5°
Reaches altitude 10° 23:40:32 10° 267° (W) 2,463 6.0 -11.0°
Maximum altitude 23:44:37 20° 313° (NW) 1,856 4.3 -11.7°
Drops below altitude 10° 23:48:44 10° 0° (N) 2,470 4.5 -12.4°
Sets 23:51:52 0° 17° (NNE) 3,408 5.0 -13.0°
